Orbital Elements at Epoch 2453426.5 (2005-Feb-25.0) TDB
Reference: JPL 34 (heliocentric ecliptic J2000)
Element | Value | Uncertainty (1-sigma) | Units |
e | .4032837253409572 | 5.1376e-07 | |
a | 3.556425641836103 | 5.0542e-07 | au |
q | 2.122177060098335 | 2.0205e-06 | au |
i | 10.84020845732539 | 1.8949e-05 | deg |
node | 336.0715547646831 | 9.6875e-05 | deg |
peri | 7.953758217470965 | 0.00025014 | deg |
M | 200.3997729110146 | 0.00012199 | deg |
tp | 2454512.550526145834 (2008-Feb-16.05052615) | 0.00086929 | TDB |
period | 2449.734543262959 6.71 | 0.00052221 1.43e-06 | d yr |
n | .1469546980059696 | 3.1327e-08 | deg/d |
Q | 4.990674223573872 | 7.0925e-07 | au |
|
Additional Model Parameters
Parameter | Value | Uncertainty (1-sigma) |
A1 [EST] | 1.84227807174211E-8 | 1.384E-9 |
A2 [EST] | -1.599664159541311E-9 | 3.283E-11 |
|
| | Orbit Determination Parameters
Additional Information
|